Weather History for Denali Park, AK

Change the Weather History Date:

Sunday, March 30, 2014

  Actual Average Record
Temperature  
Mean Temperature 16 °F -  
Max Temperature 35 °F 30 °F 48 °F (1962)
Min Temperature -2 °F 3 °F -27 °F (2002)
Degree Days  
Heating Degree Days 48    
Moisture  
Dew Point 5 °F    
Average Humidity 62    
Maximum Humidity 92    
Minimum Humidity 32    
Precipitation  
Precipitation 0.00 in - - ()
Sea Level Pressure  
Sea Level Pressure 29.96 in    
Wind  
Wind Speed 1 mph (North)    
Max Wind Speed 9 mph    
Max Gust Speed -    
Visibility 10 miles    
Events      
Averages and records for this station are not official NWS values.
T = Trace of Precipitation, MM = Missing Value Source: NWS Daily Summary

Daily Weather History Graph

Daily Weather History Graph

Search for Another Location

Airport:

Trip Planner

Search our weather history database for the weather conditions in past years. The results will help you decide how hot, cold, wet, or windy it might be!

Date:

Astronomy

Mar. 30, 2014 Rise Set
Actual Time 7:20 AM AKDT 8:41 PM AKDT
Civil Twilight 6:32 AM AKDT 9:29 PM AKDT
Nautical Twilight 5:30 AM AKDT 10:32 PM AKDT
Astronomical Twilight 4:13 AM AKDT 11:51 PM AKDT
Moon 7:11 AM AKDT (3/30) 9:19 PM AKDT (3/30)
Length of Visible Light 14h 57m
Length of Day
13h 20m
New Moon, 0% of the Moon is Illuminated
Mar 30
New Moon
Apr 7
First Quarter
Apr 14
Full
Apr 21
Last Quarter
Apr 28
New

Hourly Weather History & Observations

Time (AKDT) Temp. Windchill Dew Point Humidity Pressure Visibility Wind Dir Wind Speed Gust Speed Precip Events Conditions
12:16 AM 15.8 °F - 6.8 °F 68% 29.83 in 10.0 mi Calm Calm - N/A   Clear
12:36 AM 14.0 °F - 6.8 °F 73% 29.84 in 10.0 mi Calm Calm - N/A   Clear
12:56 AM 12.2 °F - 5.0 °F 73% 29.85 in 10.0 mi Calm Calm - N/A   Clear
1:16 AM 10.4 °F - 5.0 °F 79% 29.85 in 10.0 mi Calm Calm - N/A   Clear
1:36 AM 8.6 °F - 3.2 °F 79% 29.86 in 10.0 mi Calm Calm - N/A   Clear
1:56 AM 8.6 °F - 3.2 °F 79% 29.87 in 10.0 mi Calm Calm - N/A   Clear
2:16 AM 8.6 °F - 3.2 °F 79% 29.88 in 10.0 mi Calm Calm - N/A   Clear
2:36 AM 6.8 °F - 3.2 °F 85% 29.89 in 10.0 mi Calm Calm - N/A   Clear
2:56 AM 5.0 °F - 1.4 °F 85% 29.89 in 10.0 mi Calm Calm - N/A   Clear
3:16 AM 3.2 °F - 1.4 °F 92% 29.90 in 10.0 mi Calm Calm - N/A   Clear
3:36 AM 3.2 °F - 1.4 °F 92% 29.90 in 10.0 mi Calm Calm - N/A   Clear
3:56 AM 3.2 °F - 1.4 °F 92% 29.91 in 10.0 mi Calm Calm - N/A   Clear
4:16 AM 1.4 °F - -0.4 °F 92% 29.91 in 10.0 mi Calm Calm - N/A   Clear
4:36 AM 1.4 °F - -0.4 °F 92% 29.92 in 10.0 mi Calm Calm - N/A   Clear
4:56 AM 1.4 °F - -0.4 °F 92% 29.92 in 10.0 mi Calm Calm - N/A   Clear
5:16 AM -0.4 °F - -2.2 °F 92% 29.93 in 10.0 mi Calm Calm - N/A   Clear
5:36 AM -0.4 °F - -2.2 °F 92% 29.94 in 10.0 mi Calm Calm - N/A   Clear
5:56 AM -0.4 °F - -2.2 °F 92% 29.94 in 10.0 mi Calm Calm - N/A   Clear
6:16 AM -2.2 °F - -4.0 °F 92% 29.94 in 10.0 mi Calm Calm - N/A   Clear
6:36 AM -2.2 °F - -4.0 °F 92% 29.95 in 10.0 mi Calm Calm - N/A   Clear
6:56 AM -2.2 °F - -4.0 °F 92% 29.95 in 10.0 mi Calm Calm - N/A   Clear
7:16 AM -2.2 °F - -4.0 °F 92% 29.95 in 10.0 mi Calm Calm - N/A   Clear
7:36 AM -2.2 °F - -5.8 °F 85% 29.96 in 10.0 mi Calm Calm - N/A   Clear
7:56 AM -2.2 °F - -5.8 °F 85% 29.96 in 10.0 mi Calm Calm - N/A   Clear
8:16 AM -2.2 °F - -5.8 °F 85% 29.97 in 10.0 mi Calm Calm - N/A   Clear
8:36 AM -0.4 °F - -2.2 °F 92% 29.97 in 10.0 mi Calm Calm - N/A   Clear
8:56 AM 1.4 °F - -2.2 °F 85% 29.97 in 10.0 mi Calm Calm - N/A   Clear
9:16 AM 3.2 °F - -2.2 °F 78% 29.97 in 10.0 mi Calm Calm - N/A   Clear
9:36 AM 6.8 °F - -0.4 °F 72% 29.98 in 10.0 mi Calm Calm - N/A   Clear
9:56 AM 8.6 °F - -0.4 °F 67% 29.98 in 10.0 mi Calm Calm - N/A   Clear
10:16 AM 10.4 °F - 1.4 °F 67% 29.98 in 10.0 mi Calm Calm - N/A   Clear
10:36 AM 14.0 °F - 3.2 °F 62% 29.98 in 10.0 mi Calm Calm - N/A   Clear
10:56 AM 17.6 °F - 3.2 °F 53% 29.98 in 10.0 mi Calm Calm - N/A   Clear
11:16 AM 19.4 °F - 6.8 °F 58% 29.98 in 10.0 mi Calm Calm - N/A   Clear
11:36 AM 23.0 °F - 6.8 °F 50% 29.98 in 10.0 mi Calm Calm - N/A   Clear
11:56 AM 24.8 °F - 6.8 °F 46% 29.97 in 10.0 mi Calm Calm - N/A   Clear
12:16 PM 26.6 °F - 6.8 °F 43% 29.97 in 10.0 mi Calm Calm - N/A   Clear
12:36 PM 30.2 °F - 8.6 °F 40% 29.97 in 10.0 mi Calm Calm - N/A   Clear
1:16 PM 33.8 °F - 6.8 °F 32% 29.97 in 10.0 mi Calm Calm - N/A   Clear
1:56 PM 33.8 °F 28.6 °F 6.8 °F 32% 29.97 in 10.0 mi North 5.8 mph - N/A   Clear
2:16 PM 33.8 °F 29.6 °F 6.8 °F 32% 29.97 in 10.0 mi NE 4.6 mph - N/A   Clear
2:36 PM 33.8 °F 27.7 °F 6.8 °F 32% 29.96 in 10.0 mi North 6.9 mph - N/A   Clear
2:56 PM 33.8 °F 28.6 °F 6.8 °F 32% 29.97 in 10.0 mi NNE 5.8 mph - N/A   Clear
3:16 PM 35.6 °F 29.2 °F 8.6 °F 33% 29.96 in 10.0 mi North 8.1 mph - N/A   Clear
3:36 PM 35.6 °F 31.7 °F 8.6 °F 33% 29.96 in 10.0 mi North 4.6 mph - N/A   Clear
3:56 PM 35.6 °F 28.6 °F 8.6 °F 33% 29.96 in 10.0 mi NNE 9.2 mph - N/A   Clear
4:36 PM 35.6 °F 31.7 °F 8.6 °F 33% 29.97 in 10.0 mi NNE 4.6 mph - N/A   Clear
5:16 PM 35.6 °F 30.7 °F 8.6 °F 33% 29.97 in 10.0 mi North 5.8 mph - N/A   Clear
5:36 PM 35.6 °F 28.6 °F 8.6 °F 33% 29.97 in 10.0 mi North 9.2 mph - N/A   Clear
5:56 PM 35.6 °F 31.7 °F 8.6 °F 33% 29.97 in 10.0 mi North 4.6 mph - N/A   Clear
6:16 PM 35.6 °F 31.7 °F 8.6 °F 33% 29.98 in 10.0 mi North 4.6 mph - N/A   Clear
6:36 PM 35.6 °F 32.8 °F 8.6 °F 33% 29.98 in 10.0 mi North 3.5 mph - N/A   Clear
6:56 PM 33.8 °F 29.6 °F 8.6 °F 35% 29.98 in 10.0 mi North 4.6 mph - N/A   Clear
7:16 PM 33.8 °F 29.6 °F 8.6 °F 35% 29.98 in 10.0 mi North 4.6 mph - N/A   Clear
7:36 PM 32.0 °F 25.6 °F 10.4 °F 41% 29.99 in 10.0 mi North 6.9 mph - N/A   Clear
7:56 PM 30.2 °F 24.3 °F 12.2 °F 47% 29.99 in 10.0 mi North 5.8 mph - N/A   Clear
8:16 PM 30.2 °F 24.3 °F 12.2 °F 47% 29.99 in 10.0 mi North 5.8 mph - N/A   Clear
8:36 PM 28.4 °F 24.6 °F 12.2 °F 51% 30.00 in 10.0 mi North 3.5 mph - N/A   Clear
8:56 PM 28.4 °F 23.3 °F 12.2 °F 51% 30.01 in 10.0 mi North 4.6 mph - N/A   Clear
9:16 PM 28.4 °F 23.3 °F 12.2 °F 51% 30.01 in 10.0 mi North 4.6 mph - N/A   Clear
9:36 PM 28.4 °F 24.6 °F 10.4 °F 47% 30.01 in 10.0 mi North 3.5 mph - N/A   Clear
10:16 PM 26.6 °F - 10.4 °F 51% 30.03 in 10.0 mi Calm Calm - N/A   Clear
10:36 PM 24.8 °F - 10.4 °F 54% 30.03 in 10.0 mi Calm Calm - N/A   Clear
10:56 PM 21.2 °F 16.4 °F 10.4 °F 63% 30.03 in 10.0 mi WSW 3.5 mph - N/A   Clear
11:16 PM 23.0 °F 14.7 °F 10.4 °F 59% 30.04 in 10.0 mi SW 6.9 mph - N/A   Clear
11:36 PM 19.4 °F - 10.4 °F 68% 30.04 in 10.0 mi Calm Calm - N/A   Clear